Seattle, WA

10:21 PM PDT on April 21, 2018 (GMT -0700)
Seattle-Tacoma International

Weather History for KSEA - February, 2014

Change the Weather History Date:

Wednesday, February 5, 2014

  Actual Average Record
Temperature  
Mean Temperature 27 °F 43 °F  
Max Temperature 31 °F 49 °F 62 °F (1987)
Min Temperature 22 °F 37 °F 14 °F (1989)
Degree Days  
Heating Degree Days 38 22  
Month to date heating degree days 145 110  
Since 1 July heating degree days 2577 2759  
Cooling Degree Days 0 0  
Month to date cooling degree days 0 0  
Year to date cooling degree days 0 0  
Moisture  
Dew Point 1 °F    
Average Humidity 35    
Maximum Humidity 42    
Minimum Humidity 27    
Precipitation  
Precipitation 0.00 in 0.14 in 1.12 in (1946)
Month to date precipitation 0.08 0.67  
Year to date precipitation 3.78 6.24  
Snow  
Snow 0.00 in - 2.00 in (2017)
Month to date snowfall 0.0  
Since 1 July snowfall 1.1  
Snow Depth 0.00 in    
Sea Level Pressure  
Sea Level Pressure 30.45 in    
Wind  
Wind Speed 15 mph (East)    
Max Wind Speed 23 mph    
Max Gust Speed 39 mph    
Visibility 10 miles    
Events      
T = Trace of Precipitation, MM = Missing Value Source: NWS Daily Summary

Daily Weather History Graph

Daily Weather History Graph

Search for Another Location

Airport or City:

Astronomy

Feb. 05, 2014 Rise Set
Actual Time 7:29 AM PST 5:17 PM PST
Civil Twilight 6:57 AM PST 5:49 PM PST
Nautical Twilight 6:20 AM PST 6:26 PM PST
Astronomical Twilight 5:45 AM PST 7:02 PM PST
Moon 10:18 AM PST (2/5) No Moon Set
Length of Visible Light 10h 52m
Length of Day
9h 47m
Waxing Crescent, 40% of the Moon is Illuminated
Feb 5
Waxing Crescent
Feb 6
First Quarter
Feb 14
Full
Feb 22
Last Quarter
Mar 1
New

Hourly Weather History & Observations

Time (PST) Temp. Windchill Dew Point Humidity Pressure Visibility Wind Dir Wind Speed Gust Speed Precip Events Conditions
12:53 AM 28.0 °F 17.5 °F 7.0 °F 41% 30.45 in 10.0 mi East 12.7 mph - N/A   Partly Cloudy
1:53 AM 27.0 °F 15.2 °F 6.1 °F 41% 30.46 in 10.0 mi East 15.0 mph - N/A   Partly Cloudy
2:53 AM 27.0 °F 14.7 °F 5.0 °F 39% 30.46 in 10.0 mi East 16.1 mph 20.7 mph N/A   Partly Cloudy
3:53 AM 26.1 °F 14.0 °F 3.9 °F 39% 30.48 in 10.0 mi East 15.0 mph 23.0 mph N/A   Partly Cloudy
4:53 AM 25.0 °F 12.2 °F 3.0 °F 39% 30.49 in 10.0 mi East 16.1 mph - N/A   Partly Cloudy
5:53 AM 25.0 °F 13.1 °F 3.0 °F 39% 30.48 in 10.0 mi East 13.8 mph 23.0 mph N/A   Clear
6:53 AM 24.1 °F 11.0 °F 1.9 °F 38% 30.50 in 10.0 mi East 16.1 mph - N/A   Partly Cloudy
7:53 AM 24.1 °F 11.0 °F 1.0 °F 37% 30.50 in 10.0 mi East 16.1 mph 24.2 mph N/A   Partly Cloudy
8:53 AM 25.0 °F 13.1 °F -0.0 °F 34% 30.51 in 10.0 mi East 13.8 mph 24.2 mph N/A   Partly Cloudy
9:53 AM 27.0 °F 15.2 °F -0.9 °F 30% 30.51 in 10.0 mi ESE 15.0 mph 24.2 mph N/A   Partly Cloudy
10:53 AM 28.0 °F 14.9 °F -0.9 °F 29% 30.51 in 10.0 mi East 19.6 mph 27.6 mph N/A   Partly Cloudy
11:53 AM 30.0 °F 18.7 °F -0.0 °F 28% 30.50 in 10.0 mi East 16.1 mph 27.6 mph N/A   Partly Cloudy
12:53 PM 30.0 °F 17.5 °F -0.9 °F 27% 30.48 in 10.0 mi East 19.6 mph - N/A   Partly Cloudy
1:53 PM 30.0 °F 19.5 °F -0.0 °F 28% 30.45 in 10.0 mi East 13.8 mph 23.0 mph N/A   Partly Cloudy
2:53 PM 30.0 °F 19.1 °F 1.9 °F 30% 30.43 in 10.0 mi East 15.0 mph 23.0 mph N/A   Partly Cloudy
3:53 PM 30.0 °F 19.5 °F 1.9 °F 30% 30.43 in 10.0 mi East 13.8 mph 23.0 mph N/A   Partly Cloudy
4:53 PM 27.0 °F 15.2 °F 1.0 °F 33% 30.43 in 10.0 mi East 15.0 mph 24.2 mph N/A   Partly Cloudy
5:53 PM 25.0 °F 13.1 °F -0.0 °F 34% 30.42 in 10.0 mi East 13.8 mph 23.0 mph N/A   Partly Cloudy
6:53 PM 23.0 °F 9.6 °F -0.9 °F 35% 30.41 in 10.0 mi East 16.1 mph 26.5 mph N/A   Clear
7:53 PM 21.9 °F 8.2 °F -0.9 °F 37% 30.40 in 10.0 mi East 16.1 mph 23.0 mph N/A   Partly Cloudy
8:53 PM 21.9 °F 9.8 °F -2.0 °F 35% 30.38 in 10.0 mi East 12.7 mph 20.7 mph N/A   Partly Cloudy
9:53 PM 21.9 °F 11.0 °F -2.0 °F 35% 30.38 in 10.0 mi East 10.4 mph - N/A   Partly Cloudy
10:53 PM 21.9 °F 10.4 °F -2.9 °F 34% 30.37 in 10.0 mi East 11.5 mph - N/A   Partly Cloudy
11:53 PM 21.9 °F 11.0 °F -2.0 °F 35% 30.35 in 10.0 mi East 10.4 mph - N/A   Scattered Clouds